| time (UTC) | temp F | wind direction | speed MPH | gust MPH | rain 1hr in | rain 24hr in | rain mn in | humidity % | barometer mb |
| 20260508054013 | 61 | 15 | 0.0 | 0.0 | 0.00 | 0.00 | 0.00 | 79 | 1019.0 |
| 20260508053512 | 61 | 252 | 0.0 | 0.0 | 0.00 | 0.00 | 0.00 | 77 | 1019.0 |
| 20260508053012 | 62 | 354 | 0.0 | 0.0 | 0.00 | 0.00 | 0.00 | 73 | 1019.0 |
| 20260508052512 | 62 | 354 | 0.0 | 0.0 | 0.00 | 0.00 | 0.00 | 73 | 1018.0 |
| 20260508052013 | 62 | 354 | 0.0 | 0.0 | 0.00 | 0.00 | 0.00 | 72 | 1018.0 |
| 20260508051512 | 62 | 354 | 0.0 | 0.0 | 0.00 | 0.00 | 0.00 | 70 | 1018.0 |
| 20260508051013 | 61 | 354 | 0.0 | 0.0 | 0.00 | 0.00 | 0.00 | 71 | 1018.0 |
| 20260508050513 | 61 | 354 | 0.0 | 0.0 | 0.00 | 0.00 | 0.00 | 71 | 1018.0 |
| 20260508050013 | 61 | 354 | 0.0 | 0.0 | 0.00 | 0.00 | 0.00 | 72 | 1018.0 |
| 20260508045512 | 60 | 354 | 0.0 | 0.0 | 0.00 | 0.00 | 0.00 | 73 | 1018.0 |
| 20260508045014 | 60 | 354 | 0.0 | 0.0 | 0.00 | 0.00 | 0.00 | 74 | 1018.0 |
| 20260508044025 | 60 | 354 | 0.0 | 0.0 | 0.00 | 0.00 | 0.00 | 77 | 1017.0 |
| 20260508043512 | 60 | 354 | 0.0 | 0.0 | 0.00 | 0.00 | 0.00 | 78 | 1017.0 |
| 20260508043013 | 60 | 354 | 0.0 | 0.0 | 0.00 | 0.00 | 0.00 | 78 | 1017.0 |
| 20260508042513 | 59 | 355 | 0.0 | 0.0 | 0.00 | 0.00 | 0.00 | 79 | 1017.0 |
| 20260508042012 | 59 | 355 | 0.0 | 0.0 | 0.00 | 0.00 | 0.00 | 79 | 1017.0 |
| 20260508041513 | 59 | 355 | 0.0 | 0.0 | 0.00 | 0.00 | 0.00 | 78 | 1017.0 |
| 20260508041012 | 61 | 354 | 0.0 | 0.0 | 0.00 | 0.00 | 0.00 | 74 | 1017.0 |
| 20260508040512 | 61 | 355 | 0.0 | 0.0 | 0.00 | 0.00 | 0.00 | 73 | 1017.0 |
| 20260508040012 | 60 | 354 | 0.0 | 0.0 | 0.00 | 0.00 | 0.00 | 73 | 1017.0 |
| 20260508035512 | 60 | 354 | 0.0 | 0.0 | 0.00 | 0.00 | 0.00 | 73 | 1017.0 |
| 20260508035012 | 60 | 355 | 0.0 | 0.0 | 0.00 | 0.00 | 0.00 | 74 | 1017.0 |
| 20260508034512 | 60 | 354 | 0.0 | 0.0 | 0.00 | 0.00 | 0.00 | 74 | 1017.0 |
| 20260508034013 | 60 | 354 | 0.0 | 0.0 | 0.00 | 0.00 | 0.00 | 75 | 1017.0 |
| 20260508033512 | 60 | 355 | 0.0 | 0.0 | 0.00 | 0.00 | 0.00 | 76 | 1017.0 |
| 20260508033013 | 60 | 355 | 0.0 | 0.0 | 0.00 | 0.00 | 0.00 | 76 | 1016.0 |
| 20260508032513 | 60 | 355 | 0.0 | 0.0 | 0.00 | 0.00 | 0.00 | 76 | 1016.0 |
| 20260508032012 | 60 | 355 | 0.0 | 0.0 | 0.00 | 0.00 | 0.00 | 75 | 1017.0 |
| 20260508031512 | 60 | 355 | 0.0 | 0.0 | 0.00 | 0.00 | 0.00 | 75 | 1016.0 |
| 20260508031012 | 60 | 355 | 0.0 | 0.0 | 0.00 | 0.00 | 0.00 | 75 | 1017.0 |
| 20260508030513 | 60 | 355 | 0.0 | 0.0 | 0.00 | 0.00 | 0.00 | 74 | 1016.0 |
| 20260508030012 | 60 | 355 | 0.0 | 0.0 | 0.00 | 0.00 | 0.00 | 75 | 1016.0 |
| 20260508025512 | 60 | 355 | 0.0 | 0.0 | 0.00 | 0.00 | 0.00 | 74 | 1016.0 |
| 20260508025012 | 60 | 354 | 0.0 | 0.0 | 0.00 | 0.00 | 0.00 | 74 | 1017.0 |
| 20260508024513 | 60 | 355 | 0.0 | 0.0 | 0.00 | 0.00 | 0.00 | 75 | 1017.0 |
| 20260508024013 | 60 | 355 | 0.0 | 0.0 | 0.00 | 0.00 | 0.00 | 75 | 1017.0 |
| 20260508023512 | 60 | 355 | 0.0 | 0.0 | 0.00 | 0.00 | 0.00 | 76 | 1017.0 |
| 20260508023012 | 60 | 355 | 0.0 | 0.0 | 0.00 | 0.00 | 0.00 | 76 | 1017.0 |
| 20260508022513 | 60 | 355 | 0.0 | 0.0 | 0.00 | 0.00 | 0.00 | 77 | 1017.0 |
| 20260508022012 | 60 | 355 | 0.0 | 0.0 | 0.00 | 0.00 | 0.00 | 76 | 1017.0 |
| 20260508021512 | 60 | 354 | 0.0 | 0.0 | 0.00 | 0.00 | 0.00 | 75 | 1017.0 |
| 20260508021012 | 61 | 354 | 0.0 | 0.0 | 0.00 | 0.00 | 0.00 | 72 | 1017.0 |
| 20260508020512 | 62 | 354 | 0.0 | 0.0 | 0.00 | 0.00 | 0.00 | 64 | 1017.0 |
| 20260508020013 | 62 | 357 | 0.0 | 0.0 | 0.00 | 0.00 | 0.00 | 64 | 1017.0 |
| 20260508015512 | 62 | 0 | 2.0 | 2.0 | 0.00 | 0.00 | 0.00 | 67 | 1017.0 |
| 20260508015012 | 61 | 347 | 0.0 | 0.0 | 0.00 | 0.00 | 0.00 | 69 | 1017.0 |
| 20260508014513 | 61 | 346 | 0.0 | 0.0 | 0.00 | 0.00 | 0.00 | 71 | 1017.0 |
| 20260508014012 | 61 | 347 | 0.0 | 0.0 | 0.00 | 0.00 | 0.00 | 73 | 1017.0 |
| 20260508013512 | 61 | 347 | 0.0 | 0.0 | 0.00 | 0.00 | 0.00 | 73 | 1017.0 |
| 20260508013012 | 61 | 347 | 0.0 | 0.0 | 0.00 | 0.00 | 0.00 | 73 | 1017.0 |
| 20260508012513 | 61 | 347 | 0.0 | 0.0 | 0.00 | 0.00 | 0.00 | 73 | 1017.0 |
| 20260508012012 | 61 | 347 | 0.0 | 0.0 | 0.00 | 0.00 | 0.00 | 74 | 1017.0 |
| 20260508011513 | 61 | 234 | 0.0 | 0.0 | 0.00 | 0.00 | 0.00 | 73 | 1017.0 |
| 20260508011012 | 61 | 234 | 0.0 | 0.0 | 0.00 | 0.00 | 0.00 | 73 | 1017.0 |
| 20260508010513 | 61 | 234 | 0.0 | 0.0 | 0.00 | 0.00 | 0.00 | 73 | 1017.0 |
| 20260508010012 | 61 | 234 | 0.0 | 0.0 | 0.00 | 0.00 | 0.00 | 72 | 1017.0 |
| 20260508005513 | 62 | 234 | 0.0 | 0.0 | 0.00 | 0.00 | 0.00 | 73 | 1017.0 |
| 20260508005012 | 62 | 234 | 0.0 | 0.0 | 0.00 | 0.00 | 0.00 | 73 | 1017.0 |
| 20260508004513 | 62 | 234 | 0.0 | 0.0 | 0.00 | 0.00 | 0.00 | 72 | 1017.0 |
| 20260508004012 | 62 | 234 | 0.0 | 0.0 | 0.00 | 0.00 | 0.00 | 72 | 1017.0 |
| 20260508003512 | 62 | 234 | 0.0 | 0.0 | 0.00 | 0.00 | 0.00 | 72 | 1017.0 |
| 20260508003012 | 62 | 234 | 0.0 | 0.0 | 0.00 | 0.00 | 0.00 | 72 | 1017.0 |
| 20260508002512 | 62 | 234 | 0.0 | 0.0 | 0.00 | 0.00 | 0.00 | 71 | 1017.0 |
| 20260508002012 | 62 | 234 | 0.0 | 0.0 | 0.00 | 0.00 | 0.00 | 71 | 1017.0 |
| 20260508001512 | 62 | 234 | 0.0 | 0.0 | 0.00 | 0.00 | 0.00 | 71 | 1017.0 |
| 20260508001012 | 62 | 234 | 0.0 | 0.0 | 0.00 | 0.00 | 0.00 | 71 | 1017.0 |
| 20260508000513 | 62 | 234 | 0.0 | 0.0 | 0.00 | 0.00 | 0.00 | 72 | 1018.0 |
| 20260508000013 | 62 | 234 | 0.0 | 0.0 | 0.00 | 0.00 | 0.00 | 71 | 1018.0 |
| 20260507235512 | 62 | 234 | 0.0 | 0.0 | 0.00 | 0.00 | 0.00 | 71 | 1018.0 |
| 20260507235012 | 62 | 234 | 0.0 | 0.0 | 0.00 | 0.00 | 0.00 | 71 | 1018.0 |
| 20260507234513 | 62 | 234 | 0.0 | 0.0 | 0.00 | 0.00 | 0.00 | 71 | 1018.0 |
| 20260507234013 | 62 | 234 | 0.0 | 0.0 | 0.00 | 0.00 | 0.00 | 70 | 1018.0 |
| 20260507233513 | 63 | 234 | 0.0 | 0.0 | 0.00 | 0.00 | 0.00 | 70 | 1018.0 |
| 20260507233013 | 63 | 234 | 0.0 | 0.0 | 0.00 | 0.00 | 0.00 | 70 | 1018.0 |
| 20260507232513 | 63 | 234 | 0.0 | 0.0 | 0.00 | 0.00 | 0.00 | 70 | 1018.0 |
| 20260507232013 | 63 | 234 | 0.0 | 0.0 | 0.00 | 0.00 | 0.00 | 70 | 1018.0 |
| 20260507231512 | 63 | 234 | 0.0 | 0.0 | 0.00 | 0.00 | 0.00 | 70 | 1018.0 |
| 20260507231012 | 63 | 234 | 0.0 | 0.0 | 0.00 | 0.00 | 0.00 | 69 | 1018.0 |
| 20260507230513 | 63 | 234 | 0.0 | 0.0 | 0.00 | 0.00 | 0.00 | 69 | 1019.0 |
| 20260507230015 | 63 | 234 | 0.0 | 0.0 | 0.00 | 0.00 | 0.00 | 68 | 1019.0 |
| 20260507225512 | 62 | 234 | 0.0 | 0.0 | 0.00 | 0.00 | 0.00 | 66 | 1018.0 |
| 20260507225013 | 62 | 227 | 0.0 | 0.0 | 0.00 | 0.00 | 0.00 | 66 | 1018.0 |
| 20260507224512 | 63 | 174 | 0.0 | 0.0 | 0.00 | 0.00 | 0.00 | 67 | 1018.0 |
| 20260507224012 | 63 | 174 | 0.0 | 0.0 | 0.00 | 0.00 | 0.00 | 67 | 1018.0 |
| 20260507223512 | 63 | 174 | 0.0 | 0.0 | 0.00 | 0.00 | 0.00 | 67 | 1018.0 |
| 20260507223013 | 63 | 174 | 0.0 | 0.0 | 0.00 | 0.00 | 0.00 | 67 | 1018.0 |
| 20260507222512 | 63 | 174 | 0.0 | 0.0 | 0.00 | 0.00 | 0.00 | 66 | 1018.0 |
| 20260507222013 | 63 | 174 | 0.0 | 0.0 | 0.00 | 0.00 | 0.00 | 65 | 1018.0 |
| 20260507221512 | 63 | 174 | 0.0 | 0.0 | 0.00 | 0.00 | 0.00 | 66 | 1018.0 |
| 20260507221012 | 63 | 174 | 0.0 | 0.0 | 0.00 | 0.00 | 0.00 | 66 | 1019.0 |
| 20260507220513 | 63 | 174 | 0.0 | 0.0 | 0.00 | 0.00 | 0.00 | 66 | 1019.0 |
| 20260507220013 | 64 | 174 | 0.0 | 0.0 | 0.00 | 0.00 | 0.00 | 67 | 1018.0 |
| 20260507215512 | 63 | 174 | 0.0 | 0.0 | 0.00 | 0.00 | 0.00 | 67 | 1018.0 |
| 20260507215012 | 63 | 174 | 0.0 | 0.0 | 0.00 | 0.00 | 0.00 | 65 | 1018.0 |
| 20260507214512 | 63 | 174 | 0.0 | 0.0 | 0.00 | 0.00 | 0.00 | 65 | 1019.0 |
| 20260507214013 | 64 | 174 | 0.0 | 0.0 | 0.00 | 0.00 | 0.00 | 64 | 1019.0 |
| 20260507213512 | 64 | 174 | 0.0 | 0.0 | 0.00 | 0.00 | 0.00 | 63 | 1019.0 |
| 20260507213012 | 64 | 314 | 0.0 | 0.0 | 0.00 | 0.00 | 0.00 | 62 | 1019.0 |
| 20260507212512 | 64 | 314 | 0.0 | 0.0 | 0.00 | 0.00 | 0.00 | 60 | 1019.0 |
| 20260507212012 | 64 | 314 | 0.0 | 0.0 | 0.00 | 0.00 | 0.00 | 61 | 1019.0 |
| 20260507211512 | 64 | 314 | 0.0 | 0.0 | 0.00 | 0.00 | 0.00 | 62 | 1019.0 |
| 20260507211013 | 64 | 314 | 0.0 | 0.0 | 0.00 | 0.00 | 0.00 | 64 | 1019.0 |
| 20260507210512 | 64 | 314 | 0.0 | 0.0 | 0.00 | 0.00 | 0.00 | 63 | 1019.0 |
| 20260507210012 | 65 | 314 | 0.0 | 0.0 | 0.00 | 0.00 | 0.00 | 62 | 1019.0 |
| 20260507205513 | 65 | 316 | 0.0 | 0.0 | 0.00 | 0.00 | 0.00 | 59 | 1019.0 |
| 20260507205012 | 65 | 316 | 0.0 | 0.0 | 0.00 | 0.00 | 0.00 | 57 | 1019.0 |
| 20260507204512 | 66 | 321 | 0.0 | 0.0 | 0.00 | 0.00 | 0.00 | 56 | 1019.0 |
| 20260507204012 | 66 | 321 | 0.0 | 0.0 | 0.00 | 0.00 | 0.00 | 56 | 1019.0 |
| 20260507203512 | 66 | 321 | 0.0 | 0.0 | 0.00 | 0.00 | 0.00 | 55 | 1019.0 |
| 20260507203012 | 66 | 321 | 0.0 | 0.0 | 0.00 | 0.00 | 0.00 | 56 | 1019.0 |
| 20260507202513 | 66 | 321 | 0.0 | 0.0 | 0.00 | 0.00 | 0.00 | 56 | 1019.0 |
| 20260507202012 | 66 | 321 | 0.0 | 0.0 | 0.00 | 0.00 | 0.00 | 55 | 1019.0 |
| 20260507201512 | 67 | 321 | 0.0 | 0.0 | 0.00 | 0.00 | 0.00 | 54 | 1019.0 |
| 20260507201014 | 67 | 321 | 0.0 | 0.0 | 0.00 | 0.00 | 0.00 | 54 | 1019.0 |
| 20260507200512 | 66 | 288 | 0.0 | 0.0 | 0.00 | 0.00 | 0.00 | 53 | 1019.0 |
| 20260507200012 | 66 | 341 | 0.0 | 0.0 | 0.00 | 0.00 | 0.00 | 54 | 1019.0 |
| 20260507195512 | 65 | 348 | 0.0 | 0.0 | 0.00 | 0.00 | 0.00 | 58 | 1019.0 |
| 20260507195012 | 65 | 348 | 0.0 | 0.0 | 0.00 | 0.00 | 0.00 | 61 | 1019.0 |
| 20260507194512 | 65 | 348 | 0.0 | 0.0 | 0.00 | 0.00 | 0.00 | 61 | 1019.0 |
| 20260507194012 | 65 | 348 | 0.0 | 0.0 | 0.00 | 0.00 | 0.00 | 62 | 1019.0 |
| 20260507193512 | 66 | 348 | 0.0 | 0.0 | 0.00 | 0.00 | 0.00 | 61 | 1019.0 |
| 20260507193012 | 66 | 348 | 0.0 | 0.0 | 0.00 | 0.00 | 0.00 | 60 | 1018.0 |
| 20260507192512 | 66 | 348 | 0.0 | 0.0 | 0.00 | 0.00 | 0.00 | 58 | 1018.0 |
| 20260507192013 | 66 | 348 | 0.0 | 0.0 | 0.00 | 0.00 | 0.00 | 59 | 1019.0 |
| 20260507191513 | 66 | 348 | 0.0 | 0.0 | 0.00 | 0.00 | 0.00 | 59 | 1018.0 |
| 20260507191012 | 66 | 348 | 0.0 | 0.0 | 0.00 | 0.00 | 0.00 | 60 | 1018.0 |
| 20260507190512 | 66 | 348 | 0.0 | 0.0 | 0.00 | 0.00 | 0.00 | 61 | 1018.0 |
| 20260507190013 | 66 | 348 | 0.0 | 0.0 | 0.00 | 0.00 | 0.00 | 61 | 1018.0 |
| 20260507185513 | 66 | 348 | 0.0 | 0.0 | 0.00 | 0.00 | 0.00 | 61 | 1018.0 |
| 20260507185012 | 66 | 348 | 0.0 | 0.0 | 0.00 | 0.00 | 0.00 | 61 | 1018.0 |
| 20260507184512 | 67 | 348 | 0.0 | 0.0 | 0.00 | 0.00 | 0.00 | 60 | 1018.0 |
| 20260507184013 | 67 | 347 | 2.0 | 2.0 | 0.00 | 0.00 | 0.00 | 60 | 1018.0 |
| 20260507183512 | 67 | 347 | 0.0 | 0.0 | 0.00 | 0.00 | 0.00 | 60 | 1018.0 |
| 20260507183012 | 66 | 6 | 0.0 | 0.0 | 0.00 | 0.00 | 0.00 | 61 | 1018.0 |
| 20260507182512 | 66 | 189 | 0.0 | 0.0 | 0.00 | 0.00 | 0.00 | 63 | 1018.0 |
| 20260507182012 | 66 | 189 | 0.0 | 0.0 | 0.00 | 0.00 | 0.00 | 62 | 1018.0 |
| 20260507181512 | 67 | 186 | 2.0 | 2.0 | 0.00 | 0.00 | 0.00 | 60 | 1018.0 |
| 20260507181013 | 68 | 251 | 1.0 | 1.0 | 0.00 | 0.00 | 0.00 | 58 | 1018.0 |
| 20260507180513 | 68 | 251 | 0.0 | 0.0 | 0.00 | 0.00 | 0.00 | 57 | 1018.0 |
| 20260507180012 | 69 | 336 | 0.0 | 0.0 | 0.00 | 0.00 | 0.00 | 54 | 1018.0 |
| 20260507175512 | 69 | 336 | 0.0 | 0.0 | 0.00 | 0.00 | 0.00 | 54 | 1018.0 |
| 20260507175013 | 69 | 349 | 0.0 | 0.0 | 0.00 | 0.00 | 0.00 | 54 | 1018.0 |
| 20260507174512 | 70 | 345 | 0.0 | 0.0 | 0.00 | 0.00 | 0.00 | 54 | 1018.0 |
| 20260507174013 | 70 | 347 | 0.0 | 0.0 | 0.00 | 0.00 | 0.00 | 54 | 1018.0 |
| 20260507173512 | 70 | 350 | 2.0 | 2.0 | 0.00 | 0.00 | 0.00 | 54 | 1018.0 |
| 20260507173012 | 70 | 293 | 0.0 | 0.0 | 0.00 | 0.00 | 0.00 | 53 | 1018.0 |
| 20260507172512 | 70 | 293 | 0.0 | 0.0 | 0.00 | 0.00 | 0.00 | 53 | 1018.0 |
| 20260507172013 | 70 | 284 | 0.0 | 0.0 | 0.00 | 0.00 | 0.00 | 53 | 1018.0 |
| 20260507171512 | 70 | 284 | 0.0 | 0.0 | 0.00 | 0.00 | 0.00 | 52 | 1018.0 |
| 20260507171014 | 70 | 284 | 0.0 | 0.0 | 0.00 | 0.00 | 0.00 | 52 | 1018.0 |
| 20260507170512 | 71 | 284 | 0.0 | 0.0 | 0.00 | 0.00 | 0.00 | 51 | 1018.0 |
| 20260507170012 | 71 | 284 | 0.0 | 0.0 | 0.00 | 0.00 | 0.00 | 51 | 1018.0 |
| 20260507165512 | 72 | 284 | 0.0 | 0.0 | 0.00 | 0.00 | 0.00 | 50 | 1018.0 |
| 20260507165013 | 72 | 276 | 1.0 | 1.0 | 0.00 | 0.00 | 0.00 | 48 | 1018.0 |
| 20260507164512 | 72 | 276 | 0.0 | 0.0 | 0.00 | 0.00 | 0.00 | 47 | 1018.0 |
| 20260507164012 | 72 | 323 | 2.0 | 2.0 | 0.00 | 0.00 | 0.00 | 47 | 1018.0 |
| 20260507163513 | 72 | 265 | 1.0 | 1.0 | 0.00 | 0.00 | 0.00 | 46 | 1018.0 |
| 20260507163013 | 73 | 267 | 0.0 | 0.0 | 0.00 | 0.00 | 0.00 | 46 | 1018.0 |
| 20260507162512 | 73 | 273 | 0.0 | 0.0 | 0.00 | 0.00 | 0.00 | 45 | 1018.0 |
| 20260507162014 | 73 | 275 | 3.0 | 3.0 | 0.00 | 0.00 | 0.00 | 45 | 1018.0 |
| 20260507161513 | 73 | 288 | 6.0 | 6.0 | 0.00 | 0.00 | 0.00 | 45 | 1018.0 |
| 20260507161013 | 73 | 279 | 2.0 | 2.0 | 0.00 | 0.00 | 0.00 | 45 | 1018.0 |
| 20260507160513 | 74 | 273 | 3.0 | 3.0 | 0.00 | 0.00 | 0.00 | 44 | 1018.0 |
| 20260507160013 | 74 | 277 | 4.0 | 4.0 | 0.00 | 0.00 | 0.00 | 45 | 1018.0 |
| 20260507155513 | 74 | 300 | 3.0 | 3.0 | 0.00 | 0.00 | 0.00 | 45 | 1018.0 |
| 20260507155012 | 74 | 251 | 0.0 | 0.0 | 0.00 | 0.00 | 0.00 | 45 | 1017.0 |
| 20260507154512 | 74 | 168 | 0.0 | 0.0 | 0.00 | 0.00 | 0.00 | 45 | 1017.0 |
| 20260507154012 | 74 | 174 | 1.0 | 1.0 | 0.00 | 0.00 | 0.00 | 45 | 1017.0 |
| 20260507153512 | 74 | 273 | 0.0 | 0.0 | 0.00 | 0.00 | 0.00 | 44 | 1017.0 |
| 20260507153013 | 74 | 274 | 1.0 | 1.0 | 0.00 | 0.00 | 0.00 | 44 | 1017.0 |
| 20260507152512 | 75 | 266 | 0.0 | 0.0 | 0.00 | 0.00 | 0.00 | 43 | 1017.0 |
| 20260507152012 | 74 | 263 | 3.0 | 3.0 | 0.00 | 0.00 | 0.00 | 44 | 1017.0 |
| 20260507151512 | 74 | 169 | 0.0 | 0.0 | 0.00 | 0.00 | 0.00 | 44 | 1017.0 |
| 20260507151014 | 74 | 180 | 5.0 | 5.0 | 0.00 | 0.00 | 0.00 | 44 | 1018.0 |
| 20260507150513 | 75 | 198 | 5.0 | 6.0 | 0.00 | 0.00 | 0.00 | 43 | 1018.0 |
| 20260507150014 | 75 | 212 | 0.0 | 0.0 | 0.00 | 0.00 | 0.00 | 42 | 1018.0 |
| 20260507145513 | 75 | 257 | 0.0 | 0.0 | 0.00 | 0.00 | 0.00 | 42 | 1018.0 |
| 20260507145015 | 75 | 144 | 0.0 | 0.0 | 0.00 | 0.00 | 0.00 | 42 | 1018.0 |
| 20260507144513 | 76 | 186 | 1.0 | 1.0 | 0.00 | 0.00 | 0.00 | 41 | 1018.0 |
| 20260507144013 | 75 | 191 | 4.0 | 4.0 | 0.00 | 0.00 | 0.00 | 42 | 1018.0 |
| 20260507143513 | 75 | 196 | 4.0 | 4.0 | 0.00 | 0.00 | 0.00 | 41 | 1018.0 |
| 20260507143013 | 75 | 183 | 4.0 | 5.0 | 0.00 | 0.00 | 0.00 | 42 | 1018.0 |
| 20260507142512 | 75 | 220 | 3.0 | 3.0 | 0.00 | 0.00 | 0.00 | 41 | 1018.0 |
| 20260507142012 | 75 | 166 | 2.0 | 2.0 | 0.00 | 0.00 | 0.00 | 40 | 1018.0 |
| 20260507141513 | 76 | 185 | 5.0 | 6.0 | 0.00 | 0.00 | 0.00 | 39 | 1018.0 |
| 20260507141012 | 76 | 154 | 3.0 | 3.0 | 0.00 | 0.00 | 0.00 | 40 | 1017.0 |
| 20260507140513 | 75 | 160 | 2.0 | 2.0 | 0.00 | 0.00 | 0.00 | 41 | 1018.0 |
| 20260507140013 | 77 | 276 | 2.0 | 2.0 | 0.00 | 0.00 | 0.00 | 38 | 1018.0 |
| 20260507135513 | 76 | 210 | 1.0 | 1.0 | 0.00 | 0.00 | 0.00 | 39 | 1018.0 |
| 20260507135012 | 76 | 139 | 0.0 | 0.0 | 0.00 | 0.00 | 0.00 | 39 | 1018.0 |
| 20260507134512 | 76 | 306 | 1.0 | 1.0 | 0.00 | 0.00 | 0.00 | 39 | 1018.0 |
| 20260507134012 | 76 | 174 | 4.0 | 4.0 | 0.00 | 0.00 | 0.00 | 38 | 1017.0 |
| 20260507133513 | 76 | 180 | 5.0 | 6.0 | 0.00 | 0.00 | 0.00 | 37 | 1018.0 |
| 20260507133013 | 76 | 179 | 6.0 | 6.0 | 0.00 | 0.00 | 0.00 | 37 | 1017.0 |
| 20260507132512 | 76 | 180 | 4.0 | 4.0 | 0.00 | 0.00 | 0.00 | 37 | 1017.0 |
| 20260507132012 | 77 | 203 | 5.0 | 5.0 | 0.00 | 0.00 | 0.00 | 36 | 1017.0 |
| 20260507131513 | 77 | 180 | 9.0 | 9.0 | 0.00 | 0.00 | 0.00 | 36 | 1017.0 |
| 20260507131013 | 77 | 186 | 4.0 | 4.0 | 0.00 | 0.00 | 0.00 | 36 | 1017.0 |
| 20260507130512 | 77 | 186 | 6.0 | 7.0 | 0.00 | 0.00 | 0.00 | 35 | 1017.0 |
| 20260507130013 | 77 | 192 | 6.0 | 6.0 | 0.00 | 0.00 | 0.00 | 36 | 1017.0 |
| 20260507125513 | 77 | 191 | 8.0 | 9.0 | 0.00 | 0.00 | 0.00 | 35 | 1017.0 |
| 20260507125012 | 77 | 180 | 4.0 | 4.0 | 0.00 | 0.00 | 0.00 | 35 | 1017.0 |
| 20260507124513 | 77 | 211 | 5.0 | 6.0 | 0.00 | 0.00 | 0.00 | 34 | 1018.0 |
| 20260507124012 | 77 | 192 | 5.0 | 5.0 | 0.00 | 0.00 | 0.00 | 35 | 1018.0 |
| 20260507123513 | 78 | 184 | 8.0 | 8.0 | 0.00 | 0.00 | 0.00 | 33 | 1018.0 |
| 20260507123012 | 78 | 212 | 2.0 | 2.0 | 0.00 | 0.00 | 0.00 | 35 | 1018.0 |
| 20260507122512 | 78 | 174 | 1.0 | 1.0 | 0.00 | 0.00 | 0.00 | 35 | 1018.0 |
| 20260507122013 | 77 | 177 | 3.0 | 3.0 | 0.00 | 0.00 | 0.00 | 35 | 1018.0 |
| 20260507121512 | 77 | 191 | 4.0 | 4.0 | 0.00 | 0.00 | 0.00 | 36 | 1018.0 |
| 20260507121012 | 78 | 270 | 0.0 | 0.0 | 0.00 | 0.00 | 0.00 | 34 | 1018.0 |
| 20260507120512 | 79 | 174 | 0.0 | 0.0 | 0.00 | 0.00 | 0.00 | 34 | 1018.0 |
| 20260507120013 | 79 | 172 | 0.0 | 0.0 | 0.00 | 0.00 | 0.00 | 34 | 1018.0 |
| 20260507115512 | 78 | 168 | 4.0 | 4.0 | 0.00 | 0.00 | 0.00 | 35 | 1018.0 |
| 20260507115013 | 78 | 174 | 2.0 | 2.0 | 0.00 | 0.00 | 0.00 | 36 | 1018.0 |
| 20260507114512 | 78 | 197 | 1.0 | 1.0 | 0.00 | 0.00 | 0.00 | 34 | 1018.0 |
| 20260507114012 | 77 | 264 | 3.0 | 3.0 | 0.00 | 0.00 | 0.00 | 36 | 1018.0 |
| 20260507113513 | 76 | 276 | 1.0 | 1.0 | 0.00 | 0.00 | 0.00 | 38 | 1018.0 |
| 20260507113013 | 76 | 198 | 2.0 | 2.0 | 0.00 | 0.00 | 0.00 | 39 | 1018.0 |
| 20260507112513 | 76 | 259 | 3.0 | 3.0 | 0.00 | 0.00 | 0.00 | 39 | 1018.0 |
| 20260507112012 | 76 | 276 | 0.0 | 0.0 | 0.00 | 0.00 | 0.00 | 41 | 1018.0 |
| 20260507111512 | 76 | 212 | 2.0 | 2.0 | 0.00 | 0.00 | 0.00 | 40 | 1018.0 |
| 20260507111012 | 76 | 257 | 2.0 | 2.0 | 0.00 | 0.00 | 0.00 | 41 | 1018.0 |
| 20260507110513 | 78 | 254 | 3.0 | 3.0 | 0.00 | 0.00 | 0.00 | 38 | 1018.0 |
| 20260507110013 | 78 | 128 | 0.0 | 0.0 | 0.00 | 0.00 | 0.00 | 35 | 1018.0 |
| 20260507105512 | 77 | 168 | 5.0 | 5.0 | 0.00 | 0.00 | 0.00 | 35 | 1018.0 |
| 20260507105012 | 78 | 192 | 6.0 | 7.0 | 0.00 | 0.00 | 0.00 | 34 | 1018.0 |
| 20260507104514 | 78 | 166 | 4.0 | 5.0 | 0.00 | 0.00 | 0.00 | 35 | 1018.0 |
| 20260507104014 | 78 | 166 | 4.0 | 4.0 | 0.00 | 0.00 | 0.00 | 34 | 1018.0 |
| 20260507103512 | 78 | 198 | 2.0 | 2.0 | 0.00 | 0.00 | 0.00 | 35 | 1018.0 |
| 20260507103014 | 78 | 192 | 2.0 | 2.0 | 0.00 | 0.00 | 0.00 | 34 | 1018.0 |
| 20260507102513 | 78 | 192 | 5.0 | 5.0 | 0.00 | 0.00 | 0.00 | 34 | 1018.0 |
| 20260507102013 | 77 | 197 | 4.0 | 4.0 | 0.00 | 0.00 | 0.00 | 34 | 1018.0 |
| 20260507101514 | 78 | 179 | 4.0 | 5.0 | 0.00 | 0.00 | 0.00 | 34 | 1018.0 |
| 20260507101012 | 78 | 246 | 3.0 | 4.0 | 0.00 | 0.00 | 0.00 | 33 | 1018.0 |
| 20260507100512 | 78 | 241 | 3.0 | 3.0 | 0.00 | 0.00 | 0.00 | 34 | 1018.0 |
| 20260507100012 | 78 | 336 | 0.0 | 0.0 | 0.00 | 0.00 | 0.00 | 36 | 1018.0 |
| 20260507095512 | 77 | 184 | 3.0 | 3.0 | 0.00 | 0.00 | 0.00 | 34 | 1018.0 |
| 20260507095012 | 77 | 162 | 5.0 | 6.0 | 0.00 | 0.00 | 0.00 | 35 | 1018.0 |
| 20260507094513 | 77 | 203 | 4.0 | 5.0 | 0.00 | 0.00 | 0.00 | 35 | 1018.0 |
| 20260507094012 | 76 | 264 | 2.0 | 2.0 | 0.00 | 0.00 | 0.00 | 35 | 1018.0 |
| 20260507093512 | 77 | 270 | 1.0 | 1.0 | 0.00 | 0.00 | 0.00 | 34 | 1018.0 |
| 20260507093012 | 77 | 197 | 3.0 | 3.0 | 0.00 | 0.00 | 0.00 | 34 | 1018.0 |
| 20260507092514 | 77 | 186 | 2.0 | 2.0 | 0.00 | 0.00 | 0.00 | 34 | 1018.0 |
| 20260507092012 | 76 | 358 | 2.0 | 2.0 | 0.00 | 0.00 | 0.00 | 35 | 1018.0 |
| 20260507091513 | 77 | 196 | 2.0 | 2.0 | 0.00 | 0.00 | 0.00 | 35 | 1018.0 |
| 20260507091013 | 76 | 150 | 0.0 | 0.0 | 0.00 | 0.00 | 0.00 | 36 | 1018.0 |
| 20260507090513 | 76 | 288 | 0.0 | 0.0 | 0.00 | 0.00 | 0.00 | 38 | 1018.0 |
| 20260507090012 | 76 | 300 | 0.0 | 0.0 | 0.00 | 0.00 | 0.00 | 35 | 1018.0 |
| 20260507085513 | 77 | 7 | 3.0 | 3.0 | 0.00 | 0.00 | 0.00 | 36 | 1018.0 |
| 20260507085013 | 77 | 269 | 0.0 | 0.0 | 0.00 | 0.00 | 0.00 | 39 | 1018.0 |
| 20260507084513 | 76 | 293 | 0.0 | 0.0 | 0.00 | 0.00 | 0.00 | 41 | 1018.0 |
| 20260507084012 | 75 | 76 | 0.0 | 0.0 | 0.00 | 0.00 | 0.00 | 40 | 1018.0 |
| 20260507083512 | 75 | 174 | 0.0 | 0.0 | 0.00 | 0.00 | 0.00 | 42 | 1018.0 |
| 20260507083014 | 74 | 272 | 0.0 | 0.0 | 0.00 | 0.00 | 0.00 | 45 | 1018.0 |
| 20260507082512 | 74 | 308 | 2.0 | 2.0 | 0.00 | 0.00 | 0.00 | 44 | 1018.0 |
| 20260507082012 | 73 | 168 | 1.0 | 1.0 | 0.00 | 0.00 | 0.00 | 43 | 1018.0 |
| 20260507081512 | 72 | 152 | 0.0 | 0.0 | 0.00 | 0.00 | 0.00 | 44 | 1018.0 |
| 20260507081014 | 72 | 173 | 3.0 | 3.0 | 0.00 | 0.00 | 0.00 | 45 | 1018.0 |
| 20260507080513 | 72 | 185 | 5.0 | 6.0 | 0.00 | 0.00 | 0.00 | 46 | 1018.0 |
| 20260507080012 | 72 | 288 | 3.0 | 3.0 | 0.00 | 0.00 | 0.00 | 47 | 1018.0 |
| 20260507075512 | 72 | 174 | 0.0 | 0.0 | 0.00 | 0.00 | 0.00 | 46 | 1018.0 |
| 20260507075014 | 73 | 242 | 1.0 | 1.0 | 0.00 | 0.00 | 0.00 | 46 | 1018.0 |
| 20260507074512 | 71 | 154 | 0.0 | 0.0 | 0.00 | 0.00 | 0.00 | 46 | 1018.0 |
| 20260507074012 | 71 | 168 | 0.0 | 0.0 | 0.00 | 0.00 | 0.00 | 47 | 1018.0 |
| 20260507073512 | 71 | 330 | 1.0 | 1.0 | 0.00 | 0.00 | 0.00 | 47 | 1018.0 |
| 20260507073013 | 70 | 186 | 3.0 | 3.0 | 0.00 | 0.00 | 0.00 | 48 | 1018.0 |
| 20260507072513 | 70 | 177 | 3.0 | 3.0 | 0.00 | 0.00 | 0.00 | 50 | 1018.0 |
| 20260507072012 | 71 | 166 | 0.0 | 0.0 | 0.00 | 0.00 | 0.00 | 46 | 1018.0 |
| 20260507071512 | 71 | 300 | 0.0 | 0.0 | 0.00 | 0.00 | 0.00 | 49 | 1018.0 |
| 20260507071012 | 70 | 291 | 0.0 | 0.0 | 0.00 | 0.00 | 0.00 | 50 | 1018.0 |
| 20260507070512 | 69 | 256 | 0.0 | 0.0 | 0.00 | 0.00 | 0.00 | 50 | 1018.0 |
| 20260507070013 | 68 | 248 | 0.0 | 0.0 | 0.00 | 0.00 | 0.00 | 51 | 1018.0 |
| 20260507065512 | 69 | 173 | 0.0 | 0.0 | 0.00 | 0.00 | 0.00 | 53 | 1018.0 |
| 20260507065012 | 68 | 210 | 0.0 | 0.0 | 0.00 | 0.00 | 0.00 | 56 | 1018.0 |
| 20260507064512 | 68 | 301 | 0.0 | 0.0 | 0.00 | 0.00 | 0.00 | 54 | 1018.0 |
| 20260507064012 | 69 | 221 | 0.0 | 0.0 | 0.00 | 0.00 | 0.00 | 54 | 1018.0 |
| 20260507063512 | 68 | 288 | 0.0 | 0.0 | 0.00 | 0.00 | 0.00 | 53 | 1018.0 |
| 20260507063012 | 69 | 248 | 0.0 | 0.0 | 0.00 | 0.00 | 0.00 | 53 | 1018.0 |
| 20260507062513 | 68 | 276 | 0.0 | 0.0 | 0.00 | 0.00 | 0.00 | 52 | 1018.0 |
| 20260507062013 | 68 | 227 | 0.0 | 0.0 | 0.00 | 0.00 | 0.00 | 56 | 1018.0 |
| 20260507061514 | 67 | 271 | 0.0 | 0.0 | 0.00 | 0.00 | 0.00 | 56 | 1018.0 |
| 20260507061012 | 66 | 152 | 0.0 | 0.0 | 0.00 | 0.00 | 0.00 | 55 | 1018.0 |
| 20260507060512 | 67 | 248 | 0.0 | 0.0 | 0.00 | 0.00 | 0.00 | 57 | 1018.0 |
| 20260507060013 | 66 | 248 | 0.0 | 0.0 | 0.00 | 0.00 | 0.00 | 61 | 1018.0 |
| 20260507055513 | 67 | 174 | 0.0 | 0.0 | 0.00 | 0.00 | 0.00 | 60 | 1018.0 |
| 20260507055012 | 66 | 174 | 0.0 | 0.0 | 0.00 | 0.00 | 0.00 | 60 | 1018.0 |
| 20260507054512 | 65 | 174 | 0.0 | 0.0 | 0.00 | 0.00 | 0.00 | 64 | 1018.0 |